Location: Fort Wayne
(41.1310°N, 85.1290°W)
Time: 20:28:42
(UTC-05:00)

Cosmos 2056 Rocket - Visible Passes

Search period start: 17 February 2018 00:00
Search period end: 27 February 2018 00:00
Orbit: 742 x 801 km, 74.0° (Epoch: 16 February)

Date Brightness Start Highest point End Pass type
(mag) Time Alt. Az. Time Alt. Az. Time Alt. Az.
17 Feb 5.4 20:18:19 10° NW 20:23:01 31° W 20:27:42 10° SSW visible
18 Feb 4.5 19:41:57 10° NNW 19:47:12 51° WSW 19:52:25 10° S visible
19 Feb 3.7 19:05:51 10° NNW 19:11:17 85° WSW 19:16:42 10° SSE visible
20 Feb 6.4 20:13:24 10° NW 20:16:52 17° W 20:20:20 10° SW visible
21 Feb 5.7 19:36:33 10° NW 19:41:09 29° W 19:45:45 10° SSW visible
22 Feb 7.3 06:54:41 10° E 06:55:31 10° E 06:56:21 10° E visible
22 Feb 4.8 19:00:09 10° NNW 19:05:21 48° WSW 19:10:32 10° S visible
24 Feb 6.7 19:31:43 10° WNW 19:35:00 16° W 19:38:16 10° SW visible
25 Feb 6.7 06:45:34 10° SE 06:49:16 20° E 06:53:00 10° NE visible
25 Feb 6.1 18:54:47 10° NW 18:59:18 27° W 19:03:47 10° SSW visible
26 Feb 7.2 06:12:03 10° ESE 06:13:37 11° E 06:15:11 10° ENE visible
